This demonstration page uses our WeatherBlox Daily Observations layout. Learn more.

Left ArrowRight Arrow

Hourly Observations for October 13, 2015

Temp ( °F °C ) Dew Point ( °F °C ) Humidity (%) Winds ( mph kmh ) Pressure ( in mb ) Visibility ( mi km ) Precip ( " mm )
12:15 am 00:15 Clear 59 15 57 14 94 94 SSE 6 9 29.68 1005 10 16 N/A
12:35 am 00:35 Clear 61 16 59 15 94 94 S 6 9 29.68 1005 10 16 N/A
12:55 am 00:55 Clear 59 15 57 14 94 94 S 8 13 29.65 1004 10 16 N/A
1:15 am 01:15 Clear 59 15 59 15 100 100 S 8 13 29.65 1004 10 16 N/A
1:35 am 01:35 Clear 57 14 57 14 100 100 S 8 13 29.65 1004 10 16 N/A
1:55 am 01:55 Clear 59 15 57 14 94 94 S 7 11 29.65 1004 10 16 N/A
2:15 am 02:15 Clear 59 15 57 14 94 94 S 7 11 29.62 1003 10 16 N/A
2:35 am 02:35 Clear 55 13 55 13 100 100 S 7 11 29.62 1003 10 16 N/A
2:55 am 02:55 Clear 55 13 55 13 100 100 SSW 6 9 29.62 1003 10 16 N/A
3:15 am 03:15 Clear 55 13 55 13 100 100 S 5 7 29.62 1003 10 16 N/A
3:35 am 03:35 Clear 54 12 54 12 100 100 W 3 6 29.62 1003 10 16 N/A
3:55 am 03:55 Mostly Cloudy 55 13 55 13 100 100 SSW 6 9 29.62 1003 10 16 N/A
4:15 am 04:15 Mostly Cloudy 55 13 55 13 100 100 S 6 9 29.59 1002 10 16 N/A
4:35 am 04:35 Partly Cloudy 55 13 55 13 100 100 SW 5 7 29.59 1002 10 16 N/A
4:55 am 04:55 Mostly Cloudy 55 13 55 13 100 100 N N/A 29.59 1002 10 16 N/A
5:15 am 05:15 Mostly Cloudy 54 12 54 12 100 100 N N/A 29.59 1002 10 16 N/A
5:35 am 05:35 Cloudy 55 13 55 13 100 100 SSW 5 7 29.59 1002 10 16 N/A
5:55 am 05:55 Cloudy 55 13 55 13 100 100 SSW 7 11 29.59 1002 10 16 N/A
6:15 am 06:15 Mostly Cloudy 55 13 55 13 100 100 SSW 6 9 29.59 1002 10 16 N/A
6:35 am 06:35 Cloudy 55 13 55 13 100 100 W 5 7 29.59 1002 10 16 N/A
6:55 am 06:55 Cloudy 55 13 55 13 100 100 SSW 6 9 29.59 1002 10 16 N/A
7:15 am 07:15 Mostly Cloudy 55 13 55 13 100 100 N N/A 29.56 1001 10 16 N/A
7:35 am 07:35 Mostly Cloudy 55 13 55 13 100 100 NW 3 6 29.59 1002 10 16 N/A
7:55 am 07:55 Cloudy 55 13 55 13 100 100 N N/A 29.59 1002 7 11 N/A
8:15 am 08:15 Cloudy with Light Rain 55 13 55 13 100 100 N N/A 29.59 1002 7 11 N/A
8:35 am 08:35 Cloudy 57 14 57 14 100 100 N N/A 29.62 1003 7 11 N/A
8:55 am 08:55 Cloudy 57 14 57 14 100 100 N N/A 29.62 1003 10 16 N/A
9:15 am 09:15 Cloudy with Light Rain 59 15 59 15 100 100 N N/A 29.62 1003 7 11 N/A
9:35 am 09:35 Cloudy 59 15 59 15 100 100 SSW 7 11 29.62 1003 10 16 N/A
9:55 am 09:55 Cloudy 61 16 61 16 100 100 SW 7 11 29.62 1003 10 16 N/A
10:15 am 10:15 Cloudy 61 16 61 16 100 100 N N/A 29.62 1003 10 16 N/A
10:35 am 10:35 Cloudy 63 17 63 17 100 100 N N/A 29.62 1003 10 16 N/A
10:55 am 10:55 Partly Cloudy 63 17 61 16 94 94 N N/A 29.62 1003 10 16 N/A
11:15 am 11:15 Sunny 64 18 63 17 94 94 S 5 7 29.62 1003 10 16 N/A
11:35 am 11:35 Partly Cloudy 68 20 61 16 78 78 SSE 3 6 29.62 1003 10 16 N/A
11:55 am 11:55 Partly Cloudy 72 22 63 17 73 73 S 3 6 29.59 1002 10 16 N/A
12:15 pm 12:15 Sunny 75 24 61 16 61 61 SSW 3 6 29.59 1002 10 16 N/A
12:35 pm 12:35 Partly Cloudy 77 25 61 16 57 57 S 3 6 29.59 1002 10 16 N/A
12:55 pm 12:55 Partly Cloudy 77 25 61 16 57 57 SW 5 7 29.59 1002 10 16 N/A
1:15 pm 13:15 Partly Cloudy 73 23 59 15 61 61 W 7 11 29.59 1002 10 16 N/A
1:35 pm 13:35 Mostly Cloudy 75 24 59 15 57 57 W 6 9 29.59 1002 10 16 N/A
1:55 pm 13:55 Cloudy 73 23 57 14 57 57 W 9 15 29.59 1002 10 16 N/A
2:15 pm 14:15 Cloudy 77 25 57 14 51 51 W 10 17 29.56 1001 10 16 N/A
2:35 pm 14:35 Mostly Cloudy 79 26 57 14 48 48 W 7 11 29.53 1000 10 16 N/A
2:55 pm 14:55 Partly Cloudy 79 26 55 13 45 45 W 6 9 29.53 1000 10 16 N/A
3:15 pm 15:15 Sunny 79 26 54 12 42 42 W 8 13 29.53 1000 10 16 N/A
3:35 pm 15:35 Sunny 79 26 54 12 42 42 WNW 8 13 29.53 1000 10 16 N/A
3:55 pm 15:55 Mostly Cloudy 77 25 52 11 42 42 WNW 10 17 29.56 1001 10 16 N/A
4:15 pm 16:15 Cloudy 77 25 54 12 44 44 WNW 12 19 29.59 1002 10 16 N/A
4:35 pm 16:35 Cloudy 77 25 54 12 44 44 WNW 9 15 29.59 1002 10 16 N/A
4:55 pm 16:55 Cloudy 75 24 54 12 47 47 NW 13 20 29.59 1002 10 16 N/A
5:15 pm 17:15 Cloudy 73 23 54 12 50 50 NW 10 17 29.59 1002 10 16 N/A
5:35 pm 17:35 Cloudy 72 22 54 12 53 53 NW 13 20 29.59 1002 10 16 N/A
5:55 pm 17:55 Cloudy 72 22 54 12 53 53 NW 9 15 29.59 1002 10 16 N/A
6:15 pm 18:15 Cloudy 72 22 54 12 53 53 NW 8 13 29.59 1002 10 16 N/A
6:35 pm 18:35 Cloudy 70 21 54 12 57 57 NW 7 11 29.62 1003 10 16 N/A
6:55 pm 18:55 Cloudy 70 21 54 12 57 57 WNW 7 11 29.62 1003 10 16 N/A
7:15 pm 19:15 Cloudy 70 21 54 12 57 57 WNW 6 9 29.62 1003 10 16 N/A
7:35 pm 19:35 Cloudy 68 20 54 12 60 60 WNW 6 9 29.65 1004 10 16 N/A
7:55 pm 19:55 Cloudy 68 20 54 12 60 60 W 3 6 29.65 1004 10 16 N/A
8:15 pm 20:15 Cloudy 68 20 52 11 56 56 WNW 12 19 29.65 1004 10 16 N/A
8:35 pm 20:35 Cloudy 70 21 52 11 53 53 WNW 8 13 29.65 1004 10 16 N/A
8:55 pm 20:55 Cloudy 70 21 52 11 53 53 WNW 13 20 29.68 1005 10 16 N/A
9:15 pm 21:15 Cloudy 70 21 52 11 53 53 NW 21 33 29.68 1005 10 16 N/A
9:35 pm 21:35 Cloudy 68 20 54 12 60 60 NW 14 22 29.71 1006 10 16 N/A
9:55 pm 21:55 Cloudy 68 20 54 12 60 60 NW 12 19 29.71 1006 10 16 N/A
10:15 pm 22:15 Mostly Cloudy 66 19 54 12 64 64 NW 12 19 29.71 1006 10 16 N/A
10:35 pm 22:35 Partly Cloudy 64 18 54 12 68 68 NNW 10 17 29.74 1007 10 16 N/A
10:55 pm 22:55 Clear 64 18 52 11 64 64 NW 15 24 29.74 1007 10 16 N/A
11:15 pm 23:15 Clear 63 17 52 11 68 68 NW 8 13 29.74 1007 10 16 N/A
11:35 pm 23:35 Clear 63 17 52 11 68 68 NW 13 20 29.77 1008 10 16 N/A
11:55 pm 23:55 Clear 63 17 52 11 68 68 NW 14 22 29.77 1008 10 16 N/A

Powered by AerisWeather